Regional Weather Roundup
Issued by NWS Sterling, VA

Home | Current Version | Previous Version | Text Only | Print | Product List | Glossary Off
Versions: 1 2 3 4 5 6 7 8 9 10 11 12 13 14 15 16 17 18 19 20 21 22 23 24 25 26 27 28 29 30 31 32 33 34 35 36 37 38 39 40 41 42 43 44 45 46 47 48 49 50

000
ASUS41 KLWX 020110
RWRLWX

REGIONAL WEATHER ROUNDUP
NATIONAL WEATHER SERVICE BALTIMORE MD/WASHINGTON DC
900 PM EDT TUE SEP 01 2015

Note: "FAIR" indicates few or no clouds below 12,000 feet
with no significant weather and/or obstructions to visibility.
 TC=TEMPERATURE CELSIUS

 * =Non NWS site. Station does not report precipitation (e.g. rain,
    snow, etc.), thunder, or fog.

DCZ001-MDZ009-015-VAZ040>042-051-053>054-020200-
WASHINGTON METRO

CITY           SKY/WX    TMP DP  RH WIND       PRES   REMARKS
WASHINGTON NAT MOCLDY    82  74  76 S5        30.04R
DULLES         MOCLDY    78  67  68 CALM      30.04R
ANDREWS AFB    PTCLDY    78  69  73 SE2       30.04R
FT BELVOIR     PTCLDY    76  72  88 CALM      30.03R
QUANTICO       PTCLDY    80  73  79 NW6       30.04R
COLLEGE PARK*  PTCLDY    79  70  73 CALM      30.03R
LEESBURG*      PTCLDY    81  73  78 W5        30.06R
MANASSAS*      CLEAR     75  73  94 CALM      30.04R
GAITHERSBURG*  PTCLDY    77  68  73 NE3       30.09R

$$

MDZ006>007-011-014-020200-
BALTIMORE METRO

CITY           SKY/WX    TMP DP  RH WIND       PRES   REMARKS
BWI AIRPORT    MOCLDY    80  70  71 CALM      30.03R
MD SCIENCE CTR   N/A     85  68  56 MISG      30.04R
MARTIN STATE   MOCLDY    79  75  89 CALM      30.04R
ANNAPOLIS      PTCLDY    80  75  84 CALM      30.03R
FORT MEADE*    PTCLDY    73  70  88 CALM      30.06R

$$

MDZ012-015-019>023-020200-
MARYLAND EASTERN SHORE

CITY           SKY/WX    TMP DP  RH WIND       PRES   REMARKS
OCEAN CITY     PTCLDY    76  71  85 CALM      30.04R
SALISBURY      PTCLDY    75  73  93 CALM      30.04R
BAY BRIDGE AP*   N/A     81  68  65 CALM      30.03R
CAMBRIDGE*     PTCLDY    77  68  73 SE3       30.04R
EASTON*        PTCLDY    81  73  78 CALM      30.07R

$$

MDZ017>025-020200-
SOUTHERN MARYLAND

CITY           SKY/WX    TMP DP  RH WIND       PRES   REMARKS
PATUXENT RIVER PTCLDY    78  68  71 S5        30.03R
ST INIGOES     CLEAR     75  71  87 CALM      30.03R
LEONARDTOWN*   NOT AVBL

$$

MDZ003>005-020200-
NORTH CENTRAL MARYLAND

CITY           SKY/WX    TMP DP  RH WIND       PRES   REMARKS
FREDERICK*     PTCLDY    77  68  73 CALM      30.07R
HAGERSTOWN APT PTCLDY    82  62  50 E6        30.06R
WESTMINSTER*   PTCLDY    79  63  57 CALM      30.08R

$$

MDZ501>502-020200-
WESTERN MARYLAND

CITY           SKY/WX    TMP DP  RH WIND       PRES   REMARKS
OAKLAND*       CLEAR     72  61  68 CALM      30.21R
CUMBERLAND*    CLEAR     79  64  61 NE5       30.11R

$$

VAZ025>031-020200-
SHENANDOAH VALLEY

CITY           SKY/WX    TMP DP  RH WIND       PRES   REMARKS
WINCHESTER*    MOCLDY    81  68  65 S3        30.06R
FRONT ROYAL*   FAIR      79  68  69 CALM      30.06R
LURAY*         FAIR      77  64  65 SE3       30.08R
NEW MARKET*    FAIR      74  67  78 CALM      30.07R
STAUNTON*      MOCLDY    78  67  68 CALM      30.13R
WAYNESBORO*    CLOUDY    77  69  77 SW3       30.12S

$$

WVZ021-048>050-054>055-020200-
EASTERN WEST VIRGINIA PANHANDLE

CITY           SKY/WX    TMP DP  RH WIND       PRES   REMARKS
MARTINSBURG    PTCLDY    79  66  64 CALM      30.06R
PETERSBURG*    MOCLDY    75  68  78 CALM      30.11R

$$

VAZ036>039-050-020200-
CENTRAL FOOTHILLS

CITY           SKY/WX    TMP DP  RH WIND       PRES   REMARKS
CHARLOTTESVILL PTCLDY    79  69  71 CALM      30.07R
CULPEPER*      FAIR      73  70  91 CALM      30.06R
ORANGE*        PTCLDY    75  72  88 CALM      30.07R
GORDONSVILLE*  FAIR      75  71  86 CALM      30.05S
WARRENTON*     FAIR      74  69  86 CALM      30.05R

$$

VAZ055>057-020200-
NORTH AND CENTRAL PIEDMONT

CITY           SKY/WX    TMP DP  RH WIND       PRES   REMARKS
FREDERICKSBRG* CLEAR     80  71  72 CALM      30.03R
STAFFORD*      CLEAR     74  71  88 CALM      30.08R

$$

NCZ024-NYZ072-PAZ021-071-VAZ022-071-020200-
OTHER REGIONAL OBSERVATIONS

CITY           SKY/WX    TMP DP  RH WIND       PRES   REMARKS
NEW YORK CITY  PTCLDY    79  64  60 VRB3      30.07R
PHILADELPHIA   PTCLDY    80  70  71 E8        30.04R
PITTSBURGH     CLOUDY    80  67  64 SW5       30.09R
ROANOKE        MOCLDY    82  65  56 CALM      30.13R
RICHMOND       PTCLDY    81  70  69 CALM      30.04R
RALEIGH        PTCLDY    74  69  85 E3        30.08R

$$

ANZ530>537-020200-
MARINE OBSERVATIONS

STATION/POSITION TIME  TEMP    WIND        PRES
                       AIR SEA DIR/SP/G
                 (UTC) (F)     (DEG/KT/KT) (MB)
THOMAS PT LIGHT  NOT AVBL
BALT KEY BRIDGE  0000   84     170/  1/  2 1016.3R
COVE POINT       0000   81     200/  6/  7 1017.1R
LEWISETTA        0000   82 81  200/  5/  6 1016.2R
SOLOMONS ISLAND  0000      81                N/A
PINEY POINT      0005          160/  5/  5   N/A

$$




USA.gov is the U.S. government's official web portal to all federal, state and local government web resources and services.